FW4495 Weather Reports


Display with metric or nautical units.
time (UTC)temp
F
wind
direction
speed
MPH
gust
MPH
rain 1hr
in
rain 24hr
in
rain mn
in
humidity
%
barometer
mb
20260504081547 53 194 2.0 7.0 0.00 0.00 0.00 62 1016.0
20260504044525 49 236 0.0 2.0 0.00 0.00 0.00 65 1016.5
20260504043023 50 236 0.0 4.0 0.00 0.00 0.00 61 1016.4
20260504041536 51 235 0.0 4.0 0.00 0.00 0.00 58 1016.5
20260504040022 50 236 1.0 4.0 0.00 0.00 0.00 59 1016.5
20260504034516 49 242 1.0 6.0 0.00 0.00 0.00 60 1016.4
20260504033017 48 231 0.0 3.0 0.00 0.00 0.00 65 1016.3
20260504031517 47 279 0.0 3.0 0.00 0.00 0.00 68 1016.1
20260504030016 46 294 0.0 2.0 0.00 0.00 0.00 71 1016.1
20260504024516 46 294 0.0 2.0 0.00 0.00 0.00 71 1016.1
20260504023015 47 294 0.0 2.0 0.00 0.00 0.00 70 1016.1
20260504021515 47 327 0.0 0.0 0.00 0.00 0.00 71 1016.1
20260504020021 47 327 0.0 0.0 0.00 0.00 0.00 68 1016.0
20260504014513 48 327 0.0 2.0 0.00 0.00 0.00 67 1016.0
20260504013140 48 327 0.0 2.0 0.00 0.00 0.00 66 1015.9
20260504011512 49 327 0.0 1.0 0.00 0.00 0.00 62 1015.7
20260504010012 50 327 0.0 1.0 0.00 0.00 0.00 60 1015.6
20260504004512 51 327 0.0 2.0 0.00 0.00 0.00 57 1015.6
20260504003009 53 327 0.0 1.0 0.00 0.00 0.00 53 1015.4
20260504001520 54 327 0.0 1.0 0.00 0.00 0.00 49 1015.3
20260504000009 56 327 0.0 2.0 0.00 0.00 0.00 45 1015.0
20260503234508 57 327 0.0 2.0 0.00 0.00 0.00 43 1014.9
20260503233012 59 327 0.0 2.0 0.00 0.00 0.00 39 1014.8
20260503231507 60 252 1.0 3.0 0.00 0.00 0.00 39 1014.7
20260503230028 60 273 2.0 8.0 0.00 0.00 0.00 36 1014.8
20260503224506 61 255 1.0 7.0 0.00 0.00 0.00 35 1014.8
20260503223005 62 273 3.0 8.0 0.00 0.00 0.00 34 1014.9
20260503221505 62 261 2.0 7.0 0.00 0.00 0.00 34 1014.7
20260503220004 62 252 2.0 9.0 0.00 0.00 0.00 34 1014.8
20260503214506 62 84 2.0 11.0 0.00 0.00 0.00 34 1014.7
20260503213003 62 300 3.0 10.0 0.00 0.00 0.00 34 1014.7
20260503211501 62 329 3.0 11.0 0.00 0.00 0.00 36 1014.7
20260503210100 61 259 4.0 10.0 0.00 0.00 0.00 35 1014.7
20260503204620 61 200 3.0 10.0 0.00 0.00 0.00 37 1014.8
20260503203157 61 247 2.0 17.0 0.00 0.00 0.00 37 1015.0
20260503201554 61 84 1.0 4.0 0.00 0.00 0.00 39 1015.3
20260503200054 61 261 2.0 15.0 0.00 0.00 0.00 38 1015.4
20260503194552 60 254 4.0 14.0 0.00 0.00 0.00 38 1015.8
20260503193059 60 273 6.0 12.0 0.00 0.00 0.00 37 1015.6
20260503191608 60 267 3.0 10.0 0.00 0.00 0.00 37 1016.1
20260503190051 59 221 1.0 9.0 0.00 0.00 0.00 42 1016.1
20260503184545 58 342 5.0 13.0 0.00 0.00 0.00 40 1016.3
20260503183045 58 165 3.0 18.0 0.00 0.00 0.00 40 1016.4
20260503181549 57 53 4.0 14.0 0.00 0.00 0.00 40 1016.5
20260503180045 57 260 4.0 12.0 0.00 0.00 0.00 41 1016.5
20260503174547 57 210 2.0 14.0 0.00 0.00 0.00 40 1016.7
20260503173040 57 327 3.0 11.0 0.00 0.00 0.00 38 1016.6
20260503171539 57 145 4.0 15.0 0.00 0.00 0.00 40 1016.6